Home   Weather   San Andrés   Past weeks

Flag for Colombia Past Weather in San Andrés, Colombia — Yesterday and Last 2 Weeks

Now
82 °F

Passing clouds.


Feels Like: 92 °F
Forecast: 80 / 88 °F
Wind: 9 mph from Northeast

Location: San Andres Isla / Sesquicentenario

Current Time: Aug 19, 2017 at 6:34:15 am

Latest Report: Aug 19, 2017 at 5:00 am


Visibility: N/A

Pressure: 29.80 "Hg

Humidity: 89%

Dew Point: 79 °F

Location of San AndrésLocation

Past Weather in San Andrés — Graph

°F

San Andrés Temperature Yesterday

Maximum temperature yesterday: 88 °F (at 11:00 am)
Minimum temperature yesterday: 79 °F (at 7:00 am)
Average temperature yesterday: 85 °F

High & Low Weather Summary for the Past Weeks

 TemperatureHumidityPressure
High90 °F (Aug 14, 2:00 pm)100% (Aug 6, 3:00 am)30.02 "Hg (Aug 6, 3:00 am)
Low75 °F (Aug 10, 12:00 am)62% (Aug 5, 2:00 pm)29.73 "Hg (Aug 14, 4:00 pm)
Average84 °F81%29.87 "Hg
* Reported Aug 4 6:00 am — Aug 19 5:00 am, San Andrés. Weather by CustomWeather, © 2017

Note: Actual official high and low records may vary slightly from our data, if they occured in-between our weather recording intervals... More about our weather records

Advertising

San Andrés Weather History for the Previous 24 Hours

Scroll right to see more
 ConditionsComfort  
Time TempWeatherWind HumidityBarometerVisibility
5:00 am
Sat, Aug 19
82 °FPassing clouds.9 mph89%29.80 "HgN/A
4:00 am82 °FPassing clouds.8 mph84%29.81 "HgN/A
3:00 am82 °FPassing clouds.8 mph84%29.82 "HgN/A
2:00 am82 °FPartly cloudy.9 mph89%29.85 "HgN/A
1:00 am82 °FPassing clouds.9 mph84%29.87 "HgN/A
12:00 am82 °FPassing clouds.9 mph84%29.88 "HgN/A
11:00 pm
Fri, Aug 18
84 °FOvercast.9 mph79%29.88 "HgN/A
10:00 pm84 °FOvercast.10 mph79%29.88 "HgN/A
9:00 pm84 °FOvercast.10 mph79%29.85 "HgN/A
8:00 pm84 °FOvercast.9 mph79%29.82 "HgN/A
7:00 pm84 °FOvercast.9 mph84%29.81 "HgN/A
6:00 pm86 °FOvercast.9 mph75%29.80 "HgN/A
5:00 pm88 °FOvercast.10 mph75%29.80 "HgN/A
4:00 pm88 °FPartly sunny.10 mph75%29.81 "HgN/A
3:00 pm88 °FOvercast.10 mph75%29.83 "HgN/A
2:00 pm88 °FOvercast.10 mph75%29.84 "HgN/A
1:00 pm88 °FOvercast.9 mph75%29.85 "HgN/A
12:00 pm88 °FPartly sunny.12 mph75%29.88 "HgN/A
11:00 am88 °FScattered clouds.14 mph75%29.89 "HgN/A
10:00 am86 °FScattered clouds.10 mph79%29.89 "HgN/A
9:00 am82 °FScattered clouds.9 mph84%29.89 "HgN/A
8:00 am81 °FScattered clouds.9 mph89%29.86 "HgN/A
7:00 am79 °FScattered clouds.13 mph89%29.84 "HgN/A
6:00 am82 °FPassing clouds.12 mph84%29.84 "HgN/A
Weather by CustomWeather, © 2017

See weather overviewHow to use our weather pages